Location: La Chapelle
(48.3135°N, 1.3085°W)
Time: 03:41:58
(UTC+00:00)

SL-08 RB Rocket - Pass Details

Date: 03 March 2021
Orbit: 647 x 683 km, 97.8° (Epoch: 16 April)

Event Time Altitude Azimuth Distance (km) Brightness Sun altitude
Rises 18:50:55 0° 154° (SSE) 2,966 6.8 -10.5°
Reaches altitude 10° 18:53:08 10° 151° (SSE) 2,065 5.9 -10.9°
Maximum altitude 18:57:33 60° 72° (ENE) 763 3.7 -11.6°
Drops below altitude 10° 19:02:05 10° 353° (N) 2,103 6.4 -12.3°
Sets 19:04:21 0° 350° (N) 3,027 7.3 -12.7°
